Location: Bidart
(43.4376°N, 1.5913°W)
Time: 19:44:34
(UTC+00:00)

Cosmos 2221 - Pass Details

Date: 19 May 2025
Orbit: 572 x 593 km, 82.5° (Epoch: 21 June)

Event Time Altitude Azimuth Distance (km) Brightness Sun altitude
Exits shadow 21:37:47 41° 123° (ESE) 850 2.8 -18.4°
Maximum altitude 21:38:30 45° 93° (E) 791 2.8 -18.5°
Drops below altitude 10° 21:42:29 10° 21° (NNE) 1,895 5.5 -18.9°
Sets 21:44:44 0° 15° (NNE) 2,796 6.5 -19.1°
